Casa Grande, AZ

12:44 PM MST on August 20, 2017 (GMT -0700)
Casa Grande Municipal

Weather History for KCGZ - August, 2013

Change the Weather History Date:

Wednesday, August 28, 2013

  Actual Average Record
Temperature  
Mean Temperature 90 °F -  
Max Temperature 102 °F 98 °F 111 °F (1998)
Min Temperature 78 °F 74 °F 69 °F (2016)
Cooling Degree Days 25    
Growing Degree Days 40 (Base 50)    
Moisture  
Dew Point 64 °F    
Average Humidity 45    
Maximum Humidity 74    
Minimum Humidity 24    
Precipitation  
Precipitation 0.00 in - - ()
Sea Level Pressure  
Sea Level Pressure 29.86 in    
Wind  
Wind Speed 6 mph (SE)    
Max Wind Speed 20 mph    
Max Gust Speed 24 mph    
Visibility 10 miles    
Events      
Averages and records for this station are not official NWS values.
T = Trace of Precipitation, MM = Missing Value Source: NWS Daily Summary

Daily Weather History Graph

Daily Weather History Graph

Search for Another Location

Airport or City:

Trip Planner

Search our weather history database for the weather conditions in past years. The results will help you decide how hot, cold, wet, or windy it might be!

Date:

Astronomy

Aug. 28, 2013 Rise Set
Actual Time 5:59 AM MST 6:56 PM MST
Civil Twilight 5:33 AM MST 7:21 PM MST
Nautical Twilight 5:03 AM MST 7:51 PM MST
Astronomical Twilight 4:32 AM MST 8:22 PM MST
Moon No Moon Rise 1:28 PM MST (8/28)
Length of Visible Light 13h 48m
Length of Day
12h 57m
Last Quarter, 46% of the Moon is Illuminated
Aug 28
Last Quarter
Sep 5
New
Sep 12
First Quarter
Sep 19
Full
Sep 26
Last Quarter

Hourly Weather History & Observations

Time (MST) Temp. Heat Index Dew Point Humidity Pressure Visibility Wind Dir Wind Speed Gust Speed Precip Events Conditions
12:15 AM 82.4 °F 85.4 °F 68.0 °F 62% 29.80 in 10.0 mi Calm Calm - N/A   Clear
12:35 AM 82.4 °F 85.4 °F 68.0 °F 62% 29.80 in 10.0 mi Calm Calm - N/A   Clear
12:55 AM 80.6 °F 83.9 °F 69.8 °F 70% 29.80 in 10.0 mi SSE 3.5 mph - N/A   Clear
1:15 AM 80.6 °F 83.9 °F 69.8 °F 70% 29.80 in 10.0 mi Calm Calm - N/A   Clear
1:35 AM 80.6 °F 83.2 °F 68.0 °F 65% 29.79 in 10.0 mi WNW 3.5 mph - N/A   Clear
1:55 AM 80.6 °F 83.2 °F 68.0 °F 65% 29.79 in 10.0 mi Calm Calm - N/A   Clear
2:15 AM 78.8 °F - 69.8 °F 74% 29.80 in 10.0 mi NNE 3.5 mph - N/A   Clear
2:35 AM 78.8 °F - 69.8 °F 74% 29.80 in 10.0 mi NNE 3.5 mph - N/A   Clear
2:55 AM 78.8 °F - 68.0 °F 69% 29.80 in 10.0 mi East 4.6 mph - N/A   Clear
3:15 AM 80.6 °F 82.7 °F 66.2 °F 61% 29.80 in 10.0 mi East 9.2 mph - N/A   Clear
3:35 AM 78.8 °F - 66.2 °F 65% 29.80 in 10.0 mi ENE 6.9 mph - N/A   Clear
3:55 AM 78.8 °F - 66.2 °F 65% 29.80 in 10.0 mi ENE 6.9 mph - N/A   Clear
4:15 AM 80.6 °F 82.3 °F 64.4 °F 58% 29.80 in 10.0 mi East 4.6 mph - N/A   Clear
4:35 AM 78.8 °F - 66.2 °F 65% 29.81 in 10.0 mi NE 4.6 mph - N/A   Clear
4:55 AM 78.8 °F - 66.2 °F 65% 29.81 in 10.0 mi Calm Calm - N/A   Clear
5:15 AM 78.8 °F - 64.4 °F 61% 29.81 in 10.0 mi ENE 4.6 mph - N/A   Clear
5:35 AM 80.6 °F 82.3 °F 64.4 °F 58% 29.82 in 10.0 mi ESE 3.5 mph - N/A   Clear
5:55 AM 80.6 °F 81.8 °F 62.6 °F 54% 29.83 in 10.0 mi East 6.9 mph - N/A   Clear
6:15 AM 82.4 °F 82.9 °F 60.8 °F 48% 29.83 in 10.0 mi East 8.1 mph - N/A   Clear
6:35 AM 82.4 °F 82.9 °F 60.8 °F 48% 29.85 in 10.0 mi East 8.1 mph - N/A   Clear
6:55 AM 82.4 °F 82.9 °F 60.8 °F 48% 29.85 in 10.0 mi East 5.8 mph - N/A   Clear
7:15 AM 84.2 °F 85.0 °F 62.6 °F 48% 29.85 in 10.0 mi East 8.1 mph - N/A   Clear
7:35 AM 87.8 °F 87.6 °F 60.8 °F 40% 29.86 in 10.0 mi East 10.4 mph - N/A   Clear
7:55 AM 89.6 °F 89.5 °F 60.8 °F 38% 29.87 in 10.0 mi East 11.5 mph - N/A   Clear
8:15 AM 89.6 °F 89.5 °F 60.8 °F 38% 29.87 in 10.0 mi East 12.7 mph - N/A   Clear
8:35 AM 91.4 °F 91.4 °F 60.8 °F 36% 29.87 in 10.0 mi East 12.7 mph - N/A   Clear
8:55 AM 91.4 °F 91.4 °F 60.8 °F 36% 29.88 in 10.0 mi East 12.7 mph - N/A   Clear
9:15 AM 93.2 °F 93.3 °F 60.8 °F 34% 29.89 in 10.0 mi ESE 11.5 mph - N/A   Clear
9:35 AM 93.2 °F 94.1 °F 62.6 °F 36% 29.89 in 10.0 mi SE 11.5 mph - N/A   Clear
9:55 AM 93.2 °F 94.1 °F 62.6 °F 36% 29.89 in 10.0 mi SE 6.9 mph - N/A   Clear
10:15 AM 93.2 °F 94.1 °F 62.6 °F 36% 29.89 in 10.0 mi SE 8.1 mph - N/A   Clear
10:35 AM 95.0 °F 95.2 °F 60.8 °F 32% 29.89 in 10.0 mi ESE 8.1 mph - N/A   Clear
10:55 AM 96.8 °F 97.1 °F 60.8 °F 30% 29.89 in 10.0 mi ESE 9.2 mph 16.1 mph N/A   Clear
11:15 AM 98.6 °F 99.4 °F 60.8 °F 29% 29.88 in 10.0 mi ESE 12.7 mph 19.6 mph N/A   Clear
11:35 AM 96.8 °F 97.1 °F 60.8 °F 30% 29.88 in 10.0 mi East 9.2 mph - N/A   Clear
11:55 AM 98.6 °F 99.4 °F 60.8 °F 29% 29.87 in 10.0 mi SSE 10.4 mph 16.1 mph N/A   Clear
12:15 PM 98.6 °F 99.4 °F 60.8 °F 29% 29.87 in 10.0 mi ESE 9.2 mph - N/A   Clear
12:35 PM 100.4 °F 101.3 °F 60.8 °F 27% 29.86 in 10.0 mi South 8.1 mph - N/A   Clear
12:55 PM 100.4 °F 101.3 °F 60.8 °F 27% 29.86 in 10.0 mi South 8.1 mph 17.3 mph N/A   Clear
1:15 PM 100.4 °F 100.2 °F 59.0 °F 25% 29.85 in 10.0 mi Calm Calm - N/A   Clear
1:35 PM 100.4 °F 101.3 °F 60.8 °F 27% 29.84 in 10.0 mi SW 6.9 mph - N/A   Clear
1:55 PM 100.4 °F 101.3 °F 60.8 °F 27% 29.84 in 10.0 mi WSW 10.4 mph - N/A   Clear
2:15 PM 100.4 °F 101.3 °F 60.8 °F 27% 29.82 in 10.0 mi SSE 11.5 mph - N/A   Clear
2:35 PM 100.4 °F 100.2 °F 59.0 °F 25% 29.82 in 10.0 mi SSE 8.1 mph - N/A   Clear
2:55 PM 100.4 °F 100.2 °F 59.0 °F 25% 29.81 in 10.0 mi Calm Calm - N/A   Clear
3:15 PM 100.4 °F 100.2 °F 59.0 °F 25% 29.80 in 10.0 mi SSE 5.8 mph - N/A   Clear
3:35 PM 100.4 °F 100.2 °F 59.0 °F 25% 29.80 in 10.0 mi SE 4.6 mph - N/A   Clear
3:55 PM 100.4 °F 100.2 °F 59.0 °F 25% 29.80 in 10.0 mi Calm Calm - N/A   Clear
4:15 PM 102.2 °F 102.4 °F 59.0 °F 24% 29.80 in 10.0 mi SE 8.1 mph - N/A   Clear
4:35 PM 102.2 °F 104.2 °F 62.6 °F 27% 29.79 in 10.0 mi SSE 13.8 mph 20.7 mph N/A   Scattered Clouds
4:55 PM 100.4 °F 102.4 °F 62.6 °F 29% 29.79 in 10.0 mi SSE 13.8 mph - N/A   Partly Cloudy
5:15 PM 100.4 °F 101.3 °F 60.8 °F 27% 29.80 in 10.0 mi South 8.1 mph - N/A   Clear
5:35 PM 100.4 °F 102.4 °F 62.6 °F 29% 29.80 in 10.0 mi South 12.7 mph 17.3 mph N/A   Scattered Clouds
5:55 PM 98.6 °F 101.0 °F 64.4 °F 32% 29.81 in 10.0 mi South 10.4 mph - N/A   Scattered Clouds
6:15 PM 96.8 °F 98.0 °F 62.6 °F 32% 29.83 in 10.0 mi East 8.1 mph - N/A   Scattered Clouds
6:35 PM 95.0 °F 97.0 °F 64.4 °F 36% 29.86 in 10.0 mi SSE 18.4 mph 24.2 mph N/A   Partly Cloudy
6:55 PM 91.4 °F 93.2 °F 64.4 °F 41% 29.87 in 10.0 mi South 16.1 mph 21.9 mph N/A   Partly Cloudy
7:15 PM 91.4 °F 92.1 °F 62.6 °F 38% 29.88 in 10.0 mi South 18.4 mph 24.2 mph N/A   Clear
7:35 PM 89.6 °F 91.1 °F 64.4 °F 43% 29.89 in 10.0 mi South 19.6 mph 24.2 mph N/A   Clear
7:55 PM 87.8 °F 90.4 °F 66.2 °F 49% 29.89 in 10.0 mi SSW 17.3 mph 24.2 mph N/A   Clear
8:15 PM 86.0 °F 87.3 °F 64.4 °F 48% 29.90 in 10.0 mi SSW 17.3 mph 23.0 mph N/A   Clear
8:35 PM 86.0 °F 87.3 °F 64.4 °F 48% 29.91 in 10.0 mi SSW 13.8 mph - N/A   Clear
8:55 PM 84.2 °F 85.6 °F 64.4 °F 51% 29.93 in 10.0 mi South 12.7 mph - N/A   Clear
9:15 PM 84.2 °F 86.6 °F 66.2 °F 55% 29.94 in 10.0 mi South 10.4 mph - N/A   Clear
9:35 PM 84.2 °F 86.6 °F 66.2 °F 55% 29.94 in 10.0 mi South 12.7 mph - N/A   Clear
9:55 PM 84.2 °F 86.6 °F 66.2 °F 55% 29.95 in 10.0 mi South 11.5 mph - N/A   Clear
10:15 PM 84.2 °F 86.6 °F 66.2 °F 55% 29.97 in 10.0 mi South 12.7 mph - N/A   Clear
10:35 PM 84.2 °F 86.6 °F 66.2 °F 55% 29.98 in 10.0 mi SSW 6.9 mph - N/A   Partly Cloudy
10:55 PM 82.4 °F 85.4 °F 68.0 °F 62% 29.99 in 10.0 mi SW 9.2 mph - N/A   Partly Cloudy
11:15 PM 82.4 °F 85.4 °F 68.0 °F 62% 29.98 in 10.0 mi South 6.9 mph - N/A   Clear
11:35 PM 82.4 °F 84.6 °F 66.2 °F 58% 29.98 in 10.0 mi South 8.1 mph - N/A   Clear
11:55 PM 82.4 °F 84.6 °F 66.2 °F 58% 29.98 in 10.0 mi South 6.9 mph - N/A   Clear